Regional Weather Roundup
Issued by NWS

Home | Current Version | Previous Version | Text Only | Print | Product List | Glossary On
Versions: 1 2 3 4 5 6 7 8 9 10 11 12 13 14 15 16 17 18 19 20 21 22 23 24 25 26 27
000
ASUS44 KBMX 200310
RWRAL

ALABAMA REGIONAL WEATHER ROUNDUP
NATIONAL WEATHER SERVICE BIRMINGHAM AL
1000 PM CDT SAT APR 19 2014

NOTE: "FAIR" INDICATES FEW OR NO CLOUDS BELOW 12,000 FEET
WITH NO SIGNIFICANT WEATHER AND/OR OBSTRUCTIONS TO VISIBILITY.

THE REMARK "TC" DENOTES TEMPERATURE IN DEGREES CELSIUS.

ALZ001>011-014-016>018-020-200400-
NORTH ALABAMA

CITY           SKY/WX    TMP DP  RH WIND       PRES   REMARKS
MUSCLE SHOALS  CLEAR     57  49  74 CALM      30.16R
HUNTSVILLE     CLEAR     59  42  53 CALM      30.16R
DECATUR        CLEAR     57  45  64 CALM      30.17R
HALEYVILLE     FAIR      53  47  80 CALM      30.19R
GADSDEN        NOT AVBL
$$

ALZ012-013-022-023-030>036-040>044-200400-
WEST CENTRAL ALABAMA

CITY           SKY/WX    TMP DP  RH WIND       PRES   REMARKS
TUSCALOOSA     CLEAR     62  43  49 NE6       30.15R
$$

ALZ015-024>027-033>036-040>044-200400-
CENTRAL ALABAMA

CITY           SKY/WX    TMP DP  RH WIND       PRES   REMARKS
BIRMINGHAM     PTCLDY    64  41  42 NE5       30.18R
MONTGOMERY     PTCLDY    64  54  69 E8        30.15R
SHELBY CO ARPT MOCLDY    63  47  55 CALM      30.16R
MAXWELL AFB    PTCLDY    69  60  74 E9        30.15R
GREENVILLE     MOCLDY    64  53  67 E12       30.14R
$$

ALZ019-021-028-029-037-038-045>048-200400-
EAST CENTRAL ALABAMA

CITY           SKY/WX    TMP DP  RH WIND       PRES   REMARKS
ANNISTON       CLOUDY    62  50  64 E7        30.16R
ALEXANDER CITY MOCLDY    63  54  73 E6        30.17S
AUBURN         CLOUDY    55  50  82 NE13G22   30.18F
$$

ALZ051>064-200400-
SOUTHWEST ALABAMA

CITY           SKY/WX    TMP DP  RH WIND       PRES   REMARKS
MOBILE         CLEAR     58  54  86 CALM      30.11S
BROOKLEY FIELD CLEAR     60  53  77 NE3       30.11S
EVERGREEN      PTCLDY    66  55  67 NE9       30.14R
$$

ALZ049-050-065>069-200400-
SOUTHEAST ALABAMA

CITY           SKY/WX    TMP DP  RH WIND       PRES   REMARKS
DOTHAN         LGT RAIN  58  54  86 NE13G21   30.15R FOG
OZARK          CLOUDY    61  54  78 NE9       30.12R
TROY           CLOUDY    61  53  75 NE13      30.14R
EUFAULA        CLOUDY    57  54  88 NE5       30.13R
$$



USA.gov is the U.S. government's official web portal to all federal, state and local government web resources and services.